Weather History for Texarkana, AR

Change the Weather History Date:

Thursday, March 21, 2013

  Actual Average Record
Temperature  
Mean Temperature 46 °F 57 °F  
Max Temperature 50 °F 69 °F 92 °F (1921)
Min Temperature 41 °F 46 °F 25 °F (1933)
Degree Days  
Heating Degree Days 19 8  
Month to date heating degree days 253 228  
Since 1 July heating degree days 2199 2422  
Cooling Degree Days 0 1  
Month to date cooling degree days 8 9  
Year to date cooling degree days 12 13  
Moisture  
Dew Point 32 °F    
Average Humidity 57    
Maximum Humidity 76    
Minimum Humidity 37    
Precipitation  
Precipitation 0.02 in 0.13 in 1.82 in (1948)
Month to date precipitation 0.93 2.87  
Year to date precipitation 6.38 10.26  
Snow  
Snow 0.00 in - - ()
Month to date snowfall 0.0  
Since 1 July snowfall 2.1  
Snow Depth 0.00 in    
Sea Level Pressure  
Sea Level Pressure 29.91 in    
Wind  
Wind Speed 7 mph (East)    
Max Wind Speed 15 mph    
Max Gust Speed 23 mph    
Visibility 9 miles    
Events Rain , Thunderstorm    
T = Trace of Precipitation, MM = Missing Value Source: NWS Daily Summary

Daily Weather History Graph

Daily Weather History Graph

Search for Another Location

Airport:

Trip Planner

Search our weather history database for the weather conditions in past years. The results will help you decide how hot, cold, wet, or windy it might be!

Date:

Astronomy

Mar. 21, 2013 Rise Set
Actual Time 7:17 AM CDT 7:28 PM CDT
Civil Twilight 6:53 AM CDT 7:53 PM CDT
Nautical Twilight 6:24 AM CDT 8:22 PM CDT
Astronomical Twilight 5:54 AM CDT 8:51 PM CDT
Moon 2:13 PM CDT (3/21) 3:25 AM CDT (3/21)
Length of Visible Light 13h 00m
Length of Day
12h 10m
Waxing Gibbous, 69% of the Moon is Illuminated
Mar 21
Waxing Gibbous
Mar 27
Full
Apr 2
Last Quarter
Apr 10
New
Apr 18
First Quarter

Hourly Weather History & Observations

Time (CDT) Temp. Windchill Dew Point Humidity Pressure Visibility Wind Dir Wind Speed Gust Speed Precip Events Conditions
1:53 AM 45.0 °F 42.6 °F 34.0 °F 65% 30.06 in 6.0 mi ENE 4.6 mph - N/A   Haze
2:53 AM 45.0 °F 43.5 °F 30.0 °F 56% 30.06 in 6.0 mi East 3.5 mph - N/A   Haze
3:53 AM 44.1 °F 42.5 °F 30.0 °F 58% 30.04 in 7.0 mi ESE 3.5 mph - N/A   Clear
4:53 AM 44.1 °F 40.1 °F 28.9 °F 55% 30.03 in 7.0 mi ESE 6.9 mph - N/A   Clear
5:53 AM 42.1 °F 37.7 °F 28.0 °F 58% 30.03 in 9.0 mi East 6.9 mph - N/A   Clear
6:53 AM 41.0 °F 36.4 °F 27.0 °F 57% 30.02 in 10.0 mi Variable 6.9 mph - N/A   Clear
7:53 AM 41.0 °F 38.0 °F 25.0 °F 53% 30.04 in 10.0 mi East 4.6 mph - N/A   Overcast
8:53 AM 42.1 °F 36.6 °F 24.1 °F 49% 30.05 in 10.0 mi East 9.2 mph - N/A   Partly Cloudy
9:53 AM 44.1 °F 40.1 °F 24.1 °F 45% 30.03 in 10.0 mi Variable 6.9 mph - N/A   Mostly Cloudy
10:53 AM 46.9 °F - 21.9 °F 37% 30.01 in 10.0 mi East 9.2 mph - N/A   Mostly Cloudy
11:53 AM 48.0 °F - 25.0 °F 41% 29.99 in 10.0 mi SE 9.2 mph - N/A   Overcast
12:53 PM 50.0 °F - 30.0 °F 46% 29.96 in 10.0 mi Variable 5.8 mph - 0.00 in Rain Light Rain
1:53 PM 48.9 °F - 34.0 °F 56% 29.92 in 10.0 mi ESE 8.1 mph - 0.00 in Rain Light Rain
3:53 PM 46.0 °F 41.4 °F 36.0 °F 68% 29.83 in 10.0 mi East 9.2 mph 16.1 mph 0.01 in Rain Light Rain
4:53 PM 46.0 °F 41.4 °F 35.1 °F 66% 29.82 in 10.0 mi ESE 9.2 mph 19.6 mph 0.00 in   Overcast
5:53 PM 46.0 °F 41.0 °F 35.1 °F 66% 29.79 in 10.0 mi ESE 10.4 mph 17.3 mph N/A   Overcast
6:53 PM 45.0 °F 39.7 °F 36.0 °F 71% 29.78 in 10.0 mi East 10.4 mph 21.9 mph 0.00 in   Overcast
7:53 PM 45.0 °F 41.8 °F 37.0 °F 74% 29.78 in 10.0 mi East 5.8 mph - N/A   Overcast
8:53 PM 45.0 °F 41.8 °F 37.9 °F 76% 29.76 in 10.0 mi East 5.8 mph - N/A   Overcast
9:53 PM 46.0 °F 42.5 °F 37.0 °F 71% 29.78 in 10.0 mi Variable 6.9 mph - N/A   Overcast
10:53 PM 45.0 °F 41.2 °F 36.0 °F 71% 29.78 in 10.0 mi East 6.9 mph - 0.00 in   Overcast
11:02 PM 44.6 °F 39.7 °F 35.6 °F 71% 29.78 in 10.0 mi East 9.2 mph - N/A Thunderstorm Overcast
11:27 PM 44.6 °F 39.7 °F 37.4 °F 76% 29.77 in 10.0 mi ESE 9.2 mph 17.3 mph 0.00 in Rain Light Rain
11:53 PM 44.1 °F 38.6 °F 37.0 °F 76% 29.77 in 10.0 mi East 10.4 mph - 0.00 in   Overcast